Image and video hosting by TinyPic

Jackpot

Texas Poker Multi Jackpot System

Kini Telah hadir Jackpot SUPER ROYAL FLUSH

Kini Telah hadir Jackpot 2000 (khusus table VIP keatas).

Ikutilah global jackpot yang tersedia di system kami, dengan system jackpot terbaru dan pertama di indonesia, anda dapat membeli jackpot dengan harga 100 rupiah saja dan menangkan hadiahnya hingga puluhan juta rupiah.

Jackpot bukanlah suatu keharusan untuk dibeli, namun kami memberikan suatu fitur tambahan untuk member tercinta dari www.daun365.com.

Terdapat tiga pilihan harga jackpot yang bisa anda beli yaitu :100,500,1000 dan 2000(khusus table VIP Keatas) rupiah.

Hadiah dari Multi jackpot system www.daun365.com

  1. full house x 10 harga jackpot yang anda beli.
      (contoh:anda membeli 1000 maka:1000 X10 = 10.000)
  2. four of kind x 250 harga jackpot yang anda beli
      (contoh:anda membeli 1000 maka:1000 X250 = 250.000)
  3. Straight flush x 1200
      (contoh:anda membeli 1000 maka:1000 X1200 = 1.200.000)
  4. Royal flush x 10000 harga jackpot yang anda beli
      (contoh:anda membeli 1000 maka:1000 X10000 = 10.000.000)
  5. SUPER ROYAL FLUSH x 30000 harga jackpot yang anda beli
      (contoh:anda membeli 1000 maka:1000 X30000 = 30.000.000)

Kondisi kartu

  1. full house adalah kondisi kartu dimana kartu anda dan kartu tengah dengan total 7 kartu bisa mendapatkan nilai 5 kartu dengan kombinasi 1 tris(three of kind) dan 1 pair, contoh 3 kartu 10 dan 2 kartu 5
  2. Four of kind adalah kondisi kartu dimana kartu anda dan kartu tengah dengan total 7 kartu bisa mendapatkan nilai 5 kartu dengan kombinasi 4 kartu yang sama jumlah dan 1 kartu apapun juga contoh anda mendapatkan 4 buah kartu angka 3 dan 1 kartu apapun.
  3. Staright flush adalah kondisi kartu dimana kartu anda dan kartu tengah dengan total 7 kartu bisa mendapatkan nilai 5 kartu dengan kombinasi seri / staright dengan kembang yang sama contoh : urutan kartu dari angka 5, 6, 7, 8 , 9 10 dengan kembang yg sama misalnya as hati
  4. Royal flush adalah kondisi kartu dimana kartu anda dan kartu tengah dengan total 7 kartu bisa mendapatkan nilai 5 kartu dengan kombinasi seri / staright dengan kembang yang sama tetapi kartu tersebut haruslah dimulai dari 10. contoh 10, Queen, Jack, King dan aces dengan kembang yang sama
  5. Super Royal flush adalah kondisi kartu dimana Kedua kartu anda digabung dengan 3 kartu pertama meja haruslah royal flush. contoh kartu anda 10,Queen kembang sama dan 3 kartu pertama meja adalah Jack, King dan aces dengan kembang yang sama

Demikian adalah penjelasan dari Multi Jackpot www.daun365.com terima kasih dan selamat bermain salam hoki dari kami

Texas Poker Jackpot Winner

TOP SUPER ROYAL FLUSH
No.TanggalNamaPriceWin
125/07 02:25OBROGAH99Super Royal flush3,000,000
224/07 23:51ECAWQY6C2FSuper Royal flush6,000,000
324/07 21:48YUDHA_99Super Royal flush3,000,000
424/07 21:17DD3F1B65Super Royal flush6,000,000
524/07 15:32JAZUN99Super Royal flush3,000,000
TOP ROYAL FLUSH
No.TanggalNamaPriceWin
125/07 07:59D7C3CA34Royal flush1,000,000
225/07 06:29GHANII86Royal flush1,000,000
325/07 05:33ROPENDORoyal flush1,000,000
425/07 05:05PARTYXTIMERoyal flush5,000,000
525/07 04:59ROYALIT4Royal flush20,000,000
TOP STRAIGHT FLUSH
No.TanggalNamaPriceWin
125/07 09:28AFD4B2FFStraight Flush600,000
225/07 09:22UNTUNG343Straight Flush240,000
325/07 09:20LPA112Straight Flush600,000
425/07 09:13B4MS420Straight Flush240,000
525/07 09:12HENYAJA199Straight Flush60,000
LATEST JACKPOT
No.TanggalNamaPriceWin
125/07 09:28XHAKA33Full House5,000
225/07 09:28ACEKIILFull House5,000
325/07 09:28TURIS77Full House10,000
425/07 09:28MANAF1991Full House2,000
525/07 09:28THAMOFull House1,000
625/07 09:28AKUYETI88Full House2,000
725/07 09:28MASDOMOFull House2,000
825/07 09:28SIGNAL12Full House2,000
925/07 09:28WAWA1308Full House5,000
1025/07 09:28KC17IJ2DT1Full House500
1125/07 09:28BANGATFull House2,000
1225/07 09:28MANIENCERFull House5,000
1325/07 09:28TEMPUR123Full House5,000
1425/07 09:28MUJURJP1Full House5,000
1525/07 09:28D06E8AC4Full House2,000
1625/07 09:28AKILL123Full House5,000
1725/07 09:28LPA112Full House5,000
1825/07 09:28JIEFOXFull House2,000
1925/07 09:28M07GK6JAB1Full House5,000
2025/07 09:28VC88Four Of A Kind50,000
2125/07 09:28AMPUY06Full House2,000
2225/07 09:28XYR256Full House1,000
2325/07 09:28MOLAMOFour Of A Kind125,000
2425/07 09:28FREN06Full House10,000
2525/07 09:28MURI11Full House1,000
2625/07 09:28JOJOANNAFull House2,000
2725/07 09:28B3S1NFull House10,000
2825/07 09:28AFD4B2FFStraight Flush600,000
2925/07 09:28PAE10Full House2,000
3025/07 09:27DWJACKPOTFull House1,000
3125/07 09:27KUJANG8899Full House500
3225/07 09:27D06E8AC4Full House2,000
3325/07 09:27JHTOP_88Full House5,000
3425/07 09:27LEGENDS86Full House20,000
3525/07 09:27TAIUCING__Full House20,000
3625/07 09:27LIFOEL88Full House10,000
3725/07 09:27JUNODGELOFour Of A Kind250,000
3825/07 09:27ANGKUT3AFour Of A Kind50,000
3925/07 09:27YOYPELFull House2,000
4025/07 09:27SENA2002Full House10,000
4125/07 09:27IS8080Full House2,000
4225/07 09:27KEKE4Full House2,000
4325/07 09:27TOP135Full House2,000
4425/07 09:27NEW_PERUM3Full House1,000
4525/07 09:27ANDREYMOFull House5,000
4625/07 09:27AMANG3Four Of A Kind125,000
4725/07 09:27JACK355Full House1,000
4825/07 09:27SATRIO2323Full House10,000
4925/07 09:27HAPPY_32Four Of A Kind250,000
5025/07 09:27BAYE89Full House10,000

Domino Multi Jackpot System

Ikutilah global jackpot yang tersedia di system kami, dengan system jackpot terbaru dan pertama di indonesia, anda dapat membeli jackpot dengan harga 100 rupiah saja dan menangkan hadiahnya hingga puluhan juta rupiah.

Jackpot bukanlah suatu keharusan untuk dibeli, namun kami memberikan suatu fitur tambahan untuk member tercinta dari www.daun365.com.

Terdapat tiga pilihan harga jackpot yang bisa anda beli yaitu :100,500 dan 1000 rupiah.

Hadiah dari Multi jackpot system www.daun365.com

  1. Murni Kecil x 50 harga jackpot yang anda beli.
      (contoh:anda membeli 1000 maka:1000 X 50 = 50.000)
  2. Murni Besar x 50 harga jackpot yang anda beli
      (contoh:anda membeli 1000 maka:1000 X 50 = 50.000)
  3. BALAK x 100 harga jackpot yang anda beli
      (contoh:anda membeli 1000 maka:1000 X 100 = 100.000)
  4. ENAM DEWA x 6666 harga jackpot yang anda beli
      (contoh:anda membeli 1000 maka:1000 X 6666 = 6.666.000)

Demikian adalah penjelasan dari Multi Jackpot www.daun365.com terima kasih dan selamat bermain salam hoki dari kami

Domino Jackpot Winner

TOP ENAM DEWA
No.TanggalNamaPriceWin
125/07 06:46IESSAL98murni enam6,666,000
225/07 06:34RIOMELANOSmurni enam3,333,000
324/07 22:06FAHMOY15murni enam666,600
424/07 21:50FAHMOY15murni enam666,600
524/07 20:01N0N4Mmurni enam6,666,000
TOP BALAK
No.TanggalNamaPriceWin
125/07 09:25NI3balak100,000
225/07 09:20BAHARUN87balak50,000
325/07 09:16DOMPET07balak10,000
425/07 09:13IPULIPUL_balak100,000
525/07 09:08ARSENAL321balak50,000
LATEST JACKPOT
No.TanggalNamaPriceWin
125/07 09:27PAY8888murni kecil5,000
225/07 09:25JOSHU499murni kecil25,000
325/07 09:25QIONK11murni kecil50,000
425/07 09:25NI3balak100,000
525/07 09:23IKHSANDImurni besar5,000
625/07 09:22DISAN444murni besar50,000
725/07 09:22BOYAK93murni besar25,000
825/07 09:22SONYAP85murni besar5,000
925/07 09:21GEMEK55murni besar50,000
1025/07 09:20BAHARUN87balak50,000
1125/07 09:18RIOO_234murni besar50,000
1225/07 09:16DOMPET07balak10,000
1325/07 09:15LK4DDAYAT994murni kecil50,000
1425/07 09:14AEE6812Dmurni kecil5,000
1525/07 09:13IPULIPUL_balak100,000
1625/07 09:13UMANTmurni kecil5,000
1725/07 09:13SUGAN25murni besar50,000
1825/07 09:12KHAIDIR96murni kecil5,000
1925/07 09:10DEKULmurni besar50,000
2025/07 09:10JERRYANTOmurni besar50,000
2125/07 09:09DEKRIDJmurni kecil50,000
2225/07 09:09LK4DYAMATOSmurni kecil5,000
2325/07 09:08ARSENAL321balak50,000
2425/07 09:08OZENKP1000murni kecil25,000
2525/07 09:07BASBARmurni kecil50,000
2625/07 09:07SOGUD31balak50,000
2725/07 09:04OSCAR_6murni besar50,000
2825/07 09:03RINA_99balak100,000
2925/07 09:02POKERBGYOmurni besar5,000
3025/07 09:02BORT99murni besar25,000
3125/07 08:58POKERBGYObalak10,000
3225/07 08:57AGUNG202balak100,000
3325/07 08:57SONY_19murni besar50,000
3425/07 08:55KLOOP88murni kecil50,000
3525/07 08:54SNI_SEALmurni kecil50,000
3625/07 08:53IMAN234murni besar50,000
3725/07 08:52BEL1NKmurni kecil50,000
3825/07 08:52TNOIV6FOF1murni kecil25,000
3925/07 08:51OMENSANG21murni kecil25,000
4025/07 08:51WONImurni besar50,000
4125/07 08:51W1D199balak100,000
4225/07 08:51MDRHOKI99murni kecil5,000
4325/07 08:49OLAVbalak50,000
4425/07 08:49MILDD12murni besar50,000
4525/07 08:49BOYAK93balak50,000
4625/07 08:49HANS_83murni besar5,000
4725/07 08:48INDAHNVSRmurni besar50,000
4825/07 08:48VIJAY282murni besar50,000
4925/07 08:48INDAHNVSRmurni besar50,000
5025/07 08:48KENJROTmurni besar50,000

Ceme Multi Jackpot System

Jackpot dilihat dari gabungan kartu pemain dengan kartu bandar. Bandar harus membeli jackpot sebanyak jumlah player yang sedang duduk. Sebagai contoh bila terdapat 3 pemain duduk bermain, dan bandar memutuskan untuk membeli jackpot Rp 1.000, maka pada periode tersebut bandar akan membeli jackpot sebanyak 3xRp1.000 = Rp3.000.

Jackpot bukanlah suatu keharusan untuk dibeli, namun kami memberikan suatu fitur tambahan untuk member tercinta dari www.daun365.com.

Terdapat tiga pilihan harga jackpot yang bisa anda beli yaitu :100,500 dan 1000 rupiah.

Hadiah dari Multi jackpot system www.daun365.com

  1. Murni Kecil x 50 harga jackpot yang anda beli.
      (contoh:anda membeli 1000 maka:1000 X 50 = 50.000)
  2. Murni Besar x 50 harga jackpot yang anda beli
      (contoh:anda membeli 1000 maka:1000 X 50 = 50.000)
  3. BALAK x 200 harga jackpot yang anda beli
      (contoh:anda membeli 1000 maka:1000 X 200 = 200.000)
  4. ENAM DEWA x 6666 harga jackpot yang anda beli
      (contoh:anda membeli 1000 maka:1000 X 6666 = 6.666.000)

Demikian adalah penjelasan dari Multi Jackpot www.daun365.com terima kasih dan selamat bermain salam hoki dari kami

Ceme Jackpot Winner

TOP ENAM DEWA
No.TanggalNamaPriceWin
125/07 08:37TS30V9CXQDmurni enam3,333,000
225/07 07:51IDK884250murni enam3,333,000
325/07 07:51BESTARmurni enam666,600
425/07 07:45NCE69murni enam6,666,000
525/07 06:28GARUGA999murni enam6,666,000
TOP BALAK
No.TanggalNamaPriceWin
125/07 09:28SA28balak100,000
225/07 09:27AMSATbalak100,000
325/07 09:27MUSLEMbalak200,000
425/07 09:27OMANDRA0balak200,000
525/07 09:27VIVIANQQbalak200,000
LATEST JACKPOT
No.TanggalNamaPriceWin
125/07 09:28VIVIANQQmurni kecil50,000
225/07 09:28SA28balak100,000
325/07 09:28KIRANAXXmurni kecil50,000
425/07 09:28XGAJNEUOQVmurni kecil50,000
525/07 09:28DENBG755murni kecil50,000
625/07 09:28FANEZ99murni kecil50,000
725/07 09:27AMSATbalak100,000
825/07 09:27VIVIANQQmurni kecil50,000
925/07 09:27B7A8375Bmurni besar25,000
1025/07 09:27JHO81murni kecil50,000
1125/07 09:27MOSA297murni kecil50,000
1225/07 09:27SANUSIHQQmurni kecil25,000
1325/07 09:27MUSLEMbalak200,000
1425/07 09:27OMANDRA0balak200,000
1525/07 09:27VIVIANQQbalak200,000
1625/07 09:27KEREH123balak20,000
1725/07 09:27MISBAKmurni kecil5,000
1825/07 09:26ORAMBAYARmurni besar50,000
1925/07 09:26ACENK6171balak200,000
2025/07 09:26P1J3Tbalak200,000
2125/07 09:26LS241288murni kecil50,000
2225/07 09:25SHETAN99balak200,000
2325/07 09:25HVRSmurni kecil5,000
2425/07 09:25BOGOR75murni kecil50,000
2525/07 09:25WALHITAMmurni kecil50,000
2625/07 09:25JHO81murni kecil50,000
2725/07 09:25ELIS1997murni kecil5,000
2825/07 09:25DOKSAKmurni kecil50,000
2925/07 09:25GHIF76murni kecil5,000
3025/07 09:25OSCAR_6murni kecil50,000
3125/07 09:25KUTU20murni kecil5,000
3225/07 09:24IRWANMRmurni besar50,000
3325/07 09:24GHIF76murni kecil5,000
3425/07 09:24OSCAR_6murni kecil50,000
3525/07 09:24BAMBAM11murni besar50,000
3625/07 09:24HADDAD123murni kecil50,000
3725/07 09:23PEYIPEYmurni kecil25,000
3825/07 09:23MUDINPOmurni kecil50,000
3925/07 09:23DUITWALETmurni kecil50,000
4025/07 09:23IDK884250murni kecil50,000
4125/07 09:23GHIF76murni besar5,000
4225/07 09:23ATIGA3ASRImurni besar50,000
4325/07 09:23PPYTHEBLUSmurni kecil50,000
4425/07 09:23ILPA1411murni kecil50,000
4525/07 09:23RATNO66murni kecil50,000
4625/07 09:22KIRANAXXmurni kecil50,000
4725/07 09:22ANYOEmurni besar50,000
4825/07 09:22IONKW771PFmurni besar50,000
4925/07 09:22GHIF76murni besar5,000
5025/07 09:22IDK884250murni kecil50,000